Date_and_time,latitude,longitude,wind_speed,RelWindDirFrom,WindDirFrom,air_pressure,air_temperature,relative_humidity,Temp,platform_speed_wrt_ground,air_pressure_at_mean_sea_level,platform_orientation
2019-11-22 23:50,50.6304483333333,-96.9807533333333,17.3,21.0,194,974.61,-2.6,82,1.08,0.0,1002.27,54.7
2019-11-23 00:00,50.6304516666667,-96.9807616666667,14.8,22.0,196,974.76,-2.7,82,1.08,0.0,1002.44,3.2
2019-11-23 00:10,50.6304516666667,-96.9807666666667,13.3,17.9,203,975.00,-2.7,82,1.08,0.0,1002.69,3.2
2019-11-23 00:20,50.6304533333333,-96.9807683333333,13.7,19.3,203,974.82,-2.8,82,1.08,0.0,1002.52,3.2
2019-11-23 00:30,50.6304516666667,-96.9807666666667,14.8,19.5,198,974.50,-2.9,83,1.09,0.0,1002.21,3.2
2019-11-23 00:40,50.6304433333333,-96.9807466666667,13.4,18.1,200,974.50,-3.0,84,1.09,0.0,1002.23,3.2
2019-11-23 00:50,50.63044,-96.9807683333333,13.0,16.9,200,974.29,-3.1,84,1.10,0.0,1002.02,3.2
2019-11-23 01:00,50.6304483333333,-96.9807616666667,12.3,16.1,201,974.23,-3.2,85,1.11,0.0,1001.97,48.3
2019-11-23 01:10,50.630455,-96.980765,11.6,14.6,205,974.40,-3.2,85,1.12,0.0,1002.16,48.3
2019-11-23 01:20,50.630455,-96.9807733333333,11.4,14.9,203,974.21,-3.4,86,1.12,0.0,1001.99,48.3
2019-11-23 01:30,50.63045,-96.9807683333333,13.0,16.9,194,973.59,-3.5,86,1.12,0.0,1001.37,48.3
2019-11-23 01:40,50.63045,-96.980765,12.6,16.5,187,973.05,-3.6,87,1.11,0.0,1000.82,48.3
2019-11-23 01:50,50.6304516666667,-96.9807616666667,12.1,15.2,186,972.75,-3.6,88,1.11,0.0,1000.50,48.3
2019-11-23 02:00,50.6304533333333,-96.98076,11.1,14.4,188,972.83,-3.4,87,1.11,0.0,1000.58,48.3
2019-11-23 02:10,50.6304533333333,-96.98076,11.2,14.4,191,972.90,-3.4,88,1.11,0.0,1000.65,48.3
2019-11-23 02:20,50.630455,-96.9807633333333,12.5,16.9,201,972.97,-3.3,87,1.12,0.0,1000.73,48.3
2019-11-23 02:30,50.630455,-96.9807633333333,11.2,15.3,207,973.09,-3.4,87,1.12,0.0,1000.86,48.3
2019-11-23 02:40,50.630445,-96.98076,9.9,13.9,208,973.31,-3.6,88,1.12,0.0,1001.11,48.3
2019-11-23 02:50,50.6304516666667,-96.9807616666667,11.3,14.8,215,973.93,-3.7,88,1.13,0.0,1001.76,48.3
2019-11-23 03:00,50.6304516666667,-96.98076,8.6,11.8,222,974.29,-3.9,89,1.13,0.0,1002.14,0.0
2019-11-23 03:10,50.6304516666667,-96.9807633333333,6.2,8.8,218,974.12,-3.9,90,1.14,0.0,1001.97,0.0
2019-11-23 03:20,50.6304516666667,-96.980765,6.1,8.0,214,974.05,-3.7,89,1.15,0.0,1001.90,0.0
2019-11-23 03:30,50.6304633333333,-96.980775,6.1,8.3,209,973.68,-3.5,89,1.18,0.0,1001.50,0.0
2019-11-23 03:40,50.6304616666667,-96.9807716666667,5.7,8.1,211,973.49,-3.3,88,1.21,0.0,1001.30,0.0
2019-11-23 03:50,50.63046,-96.980765,6.0,8.4,203,973.26,-3.2,88,1.23,0.0,1001.05,0.0
2019-11-23 04:00,50.63046,-96.9807666666667,6.7,8.8,220,973.29,-2.9,88,1.23,0.0,1001.06,345.5
2019-11-23 04:10,50.6304566666667,-96.9807666666667,6.2,10.4,226,973.09,-2.7,88,1.23,0.0,1000.85,345.5
2019-11-23 04:20,50.6304566666667,-96.9807666666667,5.9,8.3,220,972.90,-2.6,87,1.24,0.0,1000.65,345.5
2019-11-23 04:30,50.6304566666667,-96.980765,4.9,6.9,220,972.70,-2.5,87,1.24,0.0,1000.44,345.5
2019-11-23 04:40,50.630455,-96.9807666666667,4.6,6.8,232,972.69,-2.4,87,1.24,0.0,1000.44,345.5
2019-11-23 04:50,50.6304716666667,-96.9807966666667,1.8,3.8,222,972.60,-2.3,87,1.25,0.0,1000.35,345.5
2019-11-23 05:00,50.6304633333333,-96.9807816666667,2.8,5.1,216,972.52,-2.2,86,1.26,0.0,1000.26,305.3
2019-11-23 05:10,50.6304566666667,-96.9807683333333,2.7,3.8,201,972.50,-2.2,87,1.27,0.0,1000.24,305.3
2019-11-23 05:20,50.630455,-96.9807666666667,3.8,4.9,199,972.43,-2.2,87,1.26,0.0,1000.16,305.3
2019-11-23 05:30,50.6304366666667,-96.98073,3.7,4.8,210,972.57,-2.2,87,1.25,0.0,1000.28,305.3
2019-11-23 05:40,50.6304433333333,-96.980755,3.4,5.6,207,972.55,-2.2,88,1.26,0.0,1000.26,305.3
2019-11-23 05:50,50.6304433333333,-96.9807583333333,2.9,4.0,219,972.63,-2.2,87,1.26,0.0,1000.33,305.3
2019-11-23 06:00,50.6304383333333,-96.98075,4.2,5.6,220,972.77,-2.2,87,1.27,0.0,1000.46,165.5
2019-11-23 06:10,50.6304383333333,-96.9807583333333,4.4,5.7,210,972.77,-2.4,87,1.28,0.0,1000.46,165.5
2019-11-23 06:20,50.6304483333333,-96.98076,4.3,5.6,209,972.65,-2.5,88,1.28,0.0,1000.34,165.5
2019-11-23 06:30,50.6304466666667,-96.9807583333333,4.6,7.0,220,972.82,-2.6,88,1.27,0.0,1000.51,165.5
2019-11-23 06:40,50.6304483333333,-96.9807616666667,4.8,5.9,223,972.93,-2.7,88,1.28,0.0,1000.62,165.5
2019-11-23 06:50,50.6304483333333,-96.9807616666667,4.7,6.4,236,973.02,-2.8,88,1.27,0.0,1000.72,165.5
2019-11-23 07:00,50.6304516666667,-96.9807733333333,6.0,8.9,246,973.09,-2.7,87,1.28,0.0,1000.79,228.3
2019-11-23 07:10,50.6304416666667,-96.9807666666667,7.1,9.5,252,973.09,-2.7,87,1.29,0.0,1000.79,228.3
2019-11-23 07:20,50.630445,-96.9807716666667,7.7,10.5,260,973.17,-2.5,86,1.30,0.0,1000.86,228.3
2019-11-23 07:30,50.6304416666667,-96.98078,7.8,11.0,265,973.20,-2.3,85,1.31,0.0,1000.88,228.3
2019-11-23 07:40,50.6304383333333,-96.9807733333333,6.3,8.5,266,973.25,-2.2,85,1.30,0.0,1000.93,228.3
2019-11-23 07:50,50.63044,-96.9807666666667,6.3,8.8,265,973.34,-2.1,85,1.30,0.0,1001.02,228.3
2019-11-23 08:00,50.6304533333333,-96.9808066666667,5.9,8.8,268,973.41,-1.9,84,1.30,0.0,1001.08,222.8
2019-11-23 08:10,50.6304566666667,-96.9808016666667,6.0,8.5,272,973.40,-1.8,84,1.27,0.0,1001.08,222.8
2019-11-23 08:20,50.6304483333333,-96.98078,6.4,8.4,273,973.36,-1.7,84,1.26,0.0,1001.03,222.8
2019-11-23 08:30,50.6304466666667,-96.9807766666667,6.5,9.0,272,973.47,-1.4,83,1.25,0.0,1001.13,222.8
2019-11-23 08:40,50.630445,-96.980775,6.0,8.3,271,973.62,-1.3,83,1.24,0.0,1001.29,222.8
2019-11-23 08:50,50.6304433333333,-96.9807733333333,6.2,8.7,266,973.67,-1.3,83,1.24,0.0,1001.34,222.8
2019-11-23 09:00,50.6304433333333,-96.9807716666667,6.1,8.7,264,973.83,-1.3,82,1.25,0.0,1001.50,270.0
2019-11-23 09:10,50.6304433333333,-96.98077,6.7,9.3,260,973.82,-1.3,83,1.25,0.0,1001.49,270.0
2019-11-23 09:20,50.63044,-96.98077,7.7,10.1,261,973.89,-1.2,82,1.25,0.0,1001.54,270.0
2019-11-23 09:30,50.630425,-96.980755,7.4,9.6,262,973.93,-1.4,83,1.26,0.0,1001.59,270.0
2019-11-23 09:40,50.630425,-96.9807633333333,6.8,8.9,265,973.93,-1.6,84,1.25,0.0,1001.59,270.0
2019-11-23 09:50,50.6304266666667,-96.98077,6.5,8.5,272,973.95,-1.8,85,1.21,0.0,1001.61,270.0
2019-11-23 10:00,50.6304266666667,-96.98077,7.2,10.9,264,973.94,-1.6,85,1.18,0.0,1001.59,360.0
2019-11-23 10:10,50.6304366666667,-96.9807683333333,7.2,9.9,262,974.06,-1.5,85,1.17,0.0,1001.70,360.0
2019-11-23 10:20,50.630465,-96.9808116666667,7.4,9.3,261,974.06,-1.6,86,1.16,0.0,1001.69,360.0
2019-11-23 10:30,50.63045,-96.9807883333333,7.5,9.8,262,974.06,-1.7,87,1.14,0.0,1001.69,360.0
2019-11-23 10:40,50.63045,-96.9807816666667,6.5,8.7,266,973.95,-1.6,88,1.13,0.0,1001.58,360.0
2019-11-23 10:50,50.630445,-96.98078,6.8,9.4,268,974.17,-1.5,88,1.12,0.0,1001.79,360.0
2019-11-23 11:00,50.630445,-96.9807816666667,7.1,9.6,270,974.40,-1.3,88,1.12,0.0,1002.02,130.6
2019-11-23 11:10,50.6304466666667,-96.9807833333333,6.4,8.8,274,974.45,-1.2,88,1.11,0.0,1002.06,130.6
2019-11-23 11:20,50.63043,-96.9807716666667,6.1,8.2,271,974.53,-1.1,88,1.10,0.0,1002.15,130.6
2019-11-23 11:30,50.6304283333333,-96.98078,6.0,8.0,274,974.55,-1.0,88,1.08,0.0,1002.17,130.6
2019-11-23 11:40,50.63044,-96.9807733333333,5.8,8.2,270,974.51,-1.0,88,1.06,0.0,1002.13,130.6
2019-11-23 11:50,50.6304316666667,-96.9807716666667,4.8,7.0,270,974.52,-1.1,89,1.05,0.0,1002.15,130.6
2019-11-23 12:00,50.630435,-96.980775,6.2,9.2,259,974.59,-1.4,90,1.04,0.0,1002.22,142.0
2019-11-23 12:10,50.6304366666667,-96.9807616666667,7.3,9.9,252,974.78,-1.9,92,1.03,0.0,1002.45,142.0
2019-11-23 12:20,50.6304316666667,-96.9807683333333,7.5,10.2,254,974.74,-2.2,93,1.02,0.0,1002.44,142.0
2019-11-23 12:30,50.63043,-96.98077,6.9,9.5,252,974.87,-2.3,93,1.02,0.0,1002.57,142.0
2019-11-23 12:40,50.630425,-96.980795,6.8,9.4,253,974.85,-2.4,94,1.03,0.0,1002.55,142.0
2019-11-23 12:50,50.6304216666667,-96.980785,6.1,9.1,253,974.85,-2.4,95,1.04,0.0,1002.54,142.0
2019-11-23 13:00,50.630425,-96.9807833333333,5.8,8.4,250,974.79,-2.4,95,1.04,0.0,1002.47,270.0
2019-11-23 13:10,50.6304333333333,-96.9807833333333,5.9,8.0,251,974.70,-2.5,96,1.05,0.0,1002.37,270.0
2019-11-23 13:20,50.630435,-96.980775,5.9,7.5,248,974.61,-2.6,97,1.05,0.0,1002.28,270.0
2019-11-23 13:30,50.6304366666667,-96.980775,5.9,7.5,244,974.56,-2.7,97,1.05,0.0,1002.24,270.0
2019-11-23 13:40,50.6304366666667,-96.9807733333333,6.6,8.4,237,974.57,-2.7,98,1.06,0.0,1002.26,270.0
2019-11-23 13:50,50.6304366666667,-96.980775,6.8,8.6,239,974.67,-2.7,98,1.07,0.0,1002.37,270.0
2019-11-23 14:00,50.6304366666667,-96.980775,6.9,8.4,241,974.68,-2.5,98,1.07,0.0,1002.40,119.2
2019-11-23 14:10,50.6304366666667,-96.9807766666667,6.8,8.9,233,974.63,-2.6,97,1.07,0.0,1002.36,119.2
2019-11-23 14:20,50.6304216666667,-96.9807666666667,7.3,9.3,235,974.60,-2.6,96,1.07,0.0,1002.35,119.2
2019-11-23 14:30,50.6304233333333,-96.9807733333333,6.7,8.4,233,974.45,-2.6,96,1.07,0.0,1002.19,119.2
2019-11-23 14:40,50.630425,-96.9807766666667,6.5,8.0,230,974.24,-2.5,95,1.08,0.0,1001.97,119.2
2019-11-23 14:50,50.6304566666667,-96.9807666666667,6.0,7.3,225,974.17,-2.3,93,1.07,0.0,1001.89,119.2
2019-11-23 15:00,50.6304533333333,-96.9807633333333,5.8,8.3,225,974.29,-2.1,92,1.08,0.0,1002.01,23.5
2019-11-23 15:10,50.6304466666667,-96.9807616666667,5.8,8.1,221,974.29,-1.7,91,1.08,0.0,1001.99,23.5
2019-11-23 15:20,50.630425,-96.9807616666667,5.8,8.6,227,974.30,-1.4,90,1.07,0.0,1001.99,23.5
2019-11-23 15:30,50.6304283333333,-96.9807683333333,7.0,9.7,234,974.37,-1.0,90,1.06,0.0,1002.04,23.5
2019-11-23 15:40,50.63043,-96.9807666666667,6.3,9.0,231,974.31,-0.7,89,1.03,0.0,1001.96,23.5
2019-11-23 15:50,50.630435,-96.9808,7.2,9.2,234,974.34,-0.5,89,1.01,0.0,1001.98,23.5
2019-11-23 16:00,50.63044,-96.9807833333333,6.5,8.1,231,974.33,-0.1,87,1.01,0.0,1001.95,18.9
2019-11-23 16:10,50.6304366666667,-96.9807783333333,7.0,8.9,233,974.38,0.3,85,1.00,0.0,1001.98,18.9
2019-11-23 16:20,50.6304383333333,-96.9807766666667,7.7,10.2,229,974.34,0.6,84,0.99,0.0,1001.93,18.9
2019-11-23 16:30,50.6304366666667,-96.980775,7.0,9.7,229,974.29,0.8,84,0.99,0.0,1001.86,18.9
2019-11-23 16:40,50.6304366666667,-96.9807733333333,6.1,8.1,225,974.17,1.0,84,0.99,0.0,1001.72,18.9
2019-11-23 16:50,50.6304366666667,-96.9807733333333,6.0,7.5,214,973.98,1.2,83,0.99,0.0,1001.50,18.9
2019-11-23 17:00,50.6304383333333,-96.9807716666667,6.5,8.2,216,973.82,1.4,82,0.99,0.0,1001.30,360.0
2019-11-23 17:10,50.6304166666667,-96.9807633333333,6.5,8.9,216,973.74,1.7,80,1.01,0.0,1001.19,360.0
2019-11-23 17:20,50.6304416666667,-96.9807716666667,6.6,9.1,224,973.78,1.9,79,1.03,0.0,1001.20,360.0
2019-11-23 17:30,50.6304416666667,-96.980765,7.0,8.9,216,973.59,2.1,78,1.05,0.0,1000.98,360.0
2019-11-23 17:40,50.6304333333333,-96.9807633333333,6.9,9.7,199,973.41,2.3,77,1.05,0.0,1000.77,360.0
2019-11-23 17:50,50.63043,-96.9807666666667,7.5,11.0,202,973.16,2.2,78,1.03,0.0,1000.50,360.0
2019-11-23 18:00,50.6304333333333,-96.9807683333333,8.0,10.3,191,972.98,2.2,79,1.00,0.0,1000.30,154.3
2019-11-23 18:10,50.6304316666667,-96.9807683333333,8.5,10.4,188,972.77,1.9,80,0.99,0.0,1000.09,154.3
2019-11-23 18:20,50.6304283333333,-96.9807833333333,8.6,10.5,186,972.58,1.8,81,1.00,0.0,999.88,154.3
2019-11-23 18:30,50.630425,-96.980765,8.5,10.2,187,972.24,1.7,81,1.00,0.0,999.53,154.3
2019-11-23 18:40,50.6304233333333,-96.980765,9.2,11.3,188,971.88,1.7,81,1.00,0.0,999.15,154.3
2019-11-23 18:50,50.6304216666667,-96.980765,9.7,12.3,190,971.69,1.7,82,1.00,0.0,998.94,154.3
2019-11-23 19:00,50.6304266666667,-96.9807833333333,9.1,11.3,192,971.71,1.7,81,1.00,0.0,998.95,360.0
2019-11-23 19:10,50.63043,-96.980785,9.6,12.9,190,971.57,1.4,84,0.97,0.0,998.81,360.0
2019-11-23 19:20,50.6304333333333,-96.980785,9.6,11.5,191,971.33,1.1,86,0.94,0.0,998.57,360.0
2019-11-23 19:30,50.6304366666667,-96.980785,10.0,12.1,198,971.25,1.0,86,0.93,0.0,998.48,360.0
2019-11-23 19:40,50.63042,-96.98079,10.4,13.7,197,971.08,0.9,87,0.95,0.0,998.31,360.0
2019-11-23 19:50,50.63043,-96.98078,10.3,13.0,194,970.94,0.8,88,0.98,0.0,998.17,360.0
2019-11-23 20:00,50.6304266666667,-96.9807783333333,10.7,12.8,189,970.66,0.8,89,1.00,0.0,997.90,183.2
2019-11-23 20:10,50.6304033333333,-96.9807866666667,10.0,12.1,192,970.56,0.9,89,1.02,0.0,997.80,183.2
2019-11-23 20:20,50.63041,-96.9807783333333,10.0,13.0,195,970.49,1.0,89,1.04,0.0,997.73,183.2
2019-11-23 20:30,50.6304133333333,-96.980775,9.7,12.3,196,970.26,1.1,88,1.05,0.0,997.49,183.2
2019-11-23 20:40,50.6304133333333,-96.980775,9.6,11.9,196,969.98,1.3,87,1.03,0.0,997.19,183.2
2019-11-23 20:50,50.6304133333333,-96.980775,9.8,12.3,194,969.75,1.5,87,1.02,0.0,996.94,183.2
2019-11-23 21:00,50.630415,-96.980775,9.1,11.2,195,969.61,2.1,83,1.01,0.0,996.78,360.0
2019-11-23 21:10,50.6304166666667,-96.9807733333333,10.4,13.3,201,969.70,2.6,81,1.02,0.0,996.87,360.0
2019-11-23 21:20,50.6304166666667,-96.9807733333333,9.1,11.4,200,969.50,2.6,82,1.04,0.0,996.66,360.0
2019-11-23 21:30,50.6304166666667,-96.9807733333333,10.6,14.2,216,969.48,2.9,78,1.04,0.0,996.63,360.0
2019-11-23 21:40,50.63042,-96.9807666666667,10.3,13.9,224,969.51,3.2,75,1.04,0.0,996.65,360.0
2019-11-23 21:50,50.6304266666667,-96.9807733333333,12.1,15.9,221,969.42,3.5,72,1.05,0.0,996.55,360.0
2019-11-23 22:00,50.6304266666667,-96.9807716666667,12.3,17.6,215,969.11,3.6,72,1.05,0.0,996.22,90.0
2019-11-23 22:10,50.63043,-96.9807716666667,11.9,15.8,220,969.08,3.4,73,1.07,0.0,996.19,90.0
2019-11-23 22:20,50.6304316666667,-96.9807733333333,11.5,14.5,221,969.01,3.4,73,1.07,0.0,996.12,90.0
2019-11-23 22:30,50.6304333333333,-96.9807733333333,10.8,14.8,221,968.98,3.3,74,1.08,0.0,996.08,90.0
2019-11-23 22:40,50.6304333333333,-96.980775,10.2,13.7,221,968.85,3.2,74,1.08,0.0,995.94,90.0
2019-11-23 22:50,50.630435,-96.980775,9.7,12.5,223,968.71,3.3,74,1.08,0.0,995.76,90.0
2019-11-23 23:00,50.630435,-96.980775,9.6,14.5,224,968.66,3.4,73,1.04,0.0,995.68,36.6
2019-11-23 23:10,50.630435,-96.980775,10.4,14.9,223,968.55,3.4,72,1.01,0.0,995.57,36.6
2019-11-23 23:20,50.630435,-96.9807766666667,10.9,14.8,223,968.43,3.4,73,1.01,0.0,995.44,36.6
2019-11-23 23:30,50.630435,-96.9807766666667,11.0,14.6,223,968.27,3.2,73,1.02,0.0,995.26,36.6
2019-11-23 23:40,50.6304366666667,-96.9807766666667,10.0,14.1,223,968.08,3.0,74,1.03,0.0,995.05,36.6
2019-11-23 23:50,50.6304366666667,-96.9807766666667,9.5,12.0,221,968.00,2.9,75,1.06,0.0,994.98,36.6
